This is the latest recevied weather packets stored in our database for station/object AA4OM-2. If no packets are shown the sender has not sent any weather packets the latest 10 day(s).
| Time | Temp. | Humidity | Pressure | Rain* | Wind** | Luminosity | Snow |
|---|---|---|---|---|---|---|---|
| 1777658503 | 17.22° C | 33% | 1017.6 hPa | 0 mm | - | 996 W/m² | - |
| 1777658200 | 17.22° C | 37% | 1017.5 hPa | 0 mm | - | 1023 W/m² | - |
| 1777657898 | 17.22° C | 35% | 1017.7 hPa | 0 mm | - | 993 W/m² | - |
| 1777657593 | 17.22° C | 36% | 1017.7 hPa | 0 mm | - | 998 W/m² | - |
| 1777657286 | 17.78° C | 44% | 1017.7 hPa | 0 mm | - | 995 W/m² | - |
| 1777656983 | 17.22° C | 40% | 1017.6 hPa | 0 mm | - | 945 W/m² | - |
| 1777656680 | 17.22° C | 38% | 1017.7 hPa | 0 mm | - | 1012 W/m² | - |
| 1777656375 | 16.67° C | 40% | 1017.8 hPa | 0 mm | - | 982 W/m² | - |
| 1777656070 | 17.22° C | 36% | 1017.6 hPa | 0 mm | - | 811 W/m² | - |
| 1777655767 | 17.78° C | 41% | 1017.7 hPa | 0 mm | - | 953 W/m² | - |
| 1777655464 | 17.22° C | 41% | 1017.7 hPa | 0 mm | - | 892 W/m² | - |
| 1777655161 | 16.67° C | 40% | 1017.7 hPa | 0 mm | - | 918 W/m² | - |
| 1777654858 | 16.67° C | 36% | 1018.1 hPa | 0 mm | - | 905 W/m² | - |
| 1777654555 | 16.67° C | 43% | 1018.1 hPa | 0 mm | - | 874 W/m² | - |
| 1777654252 | 16.67° C | 41% | 1018 hPa | 0 mm | - | 917 W/m² | - |
| 1777653950 | 16.67° C | 41% | 1018.3 hPa | 0 mm | - | 928 W/m² | - |
| 1777653647 | 16.67° C | 44% | 1018.2 hPa | 0 mm | - | 903 W/m² | - |
| 1777653343 | 16.11° C | 39% | 1018.4 hPa | 0 mm | - | 875 W/m² | - |
| 1777653040 | 16.67° C | 40% | 1018.4 hPa | 0 mm | - | 851 W/m² | - |
| 1777652737 | 16.11° C | 46% | 1018.3 hPa | 0 mm | - | 756 W/m² | - |
| 1777652433 | 16.67° C | 42% | 1018.3 hPa | 0 mm | - | 908 W/m² | - |
| 1777652131 | 16.11° C | 43% | 1018.1 hPa | 0 mm | - | 911 W/m² | - |
| 1777651827 | 15.56° C | 42% | 1018.4 hPa | 0 mm | - | 928 W/m² | - |
| 1777651525 | 16.11° C | 42% | 1018.4 hPa | 0 mm | - | 816 W/m² | - |
| 1777651221 | 16.11° C | 47% | 1018.3 hPa | 0 mm | - | 839 W/m² | - |
* Rain latest hour (hover to see other rain measurements)
** Current wind speed in m/s (hover to see current wind gust speed)